Location: Niedergestelen
(46.3129°N, 7.7822°E)
Time: 14:08:10
(UTC+00:00)

YAOGAN 6 - Pass Details

Date: 01 December 2020
Orbit: 466 x 502 km, 97.0° (Epoch: 26 January)

Event Time Altitude Azimuth Distance (km) Brightness Sun altitude
Rises 16:45:19 0° 174° (S) 2,564 6.4 -10.3°
Reaches altitude 10° 16:47:25 10° 178° (S) 1,681 5.5 -10.6°
Maximum altitude 16:51:00 61° 260° (W) 560 3.2 -11.2°
Drops below altitude 10° 16:54:34 10° 341° (NNW) 1,676 5.3 -11.8°
Sets 16:56:39 0° 345° (NNW) 2,555 6.2 -12.1°
